SWA4324 KLAX-KRNO

Flight info

Callsign SWA4324
Flight time N/A
Altitude 34000
Route LADYJ4 CSTRO SHERF TARVR2
Aircraft B738/M-SADE2E3GIJ4RWZ/LB1D1

Departure

Time 2026-04-26 17:44
Airport Los Angeles International Airport (KLAX)

Arrival

Time N/A
Airport Reno Tahoe International Airport (KRNO)
Time Latitude Longitude Altitude Speed Heading
2026-04-26 17:14 33.94768 -118.40061 125 ft 0 kts 243°
2026-04-26 17:37 33.94774 -118.40046 119 ft 4 kts 254°
2026-04-26 17:38 33.94761 -118.40011 125 ft 1 kts
2026-04-26 17:38 33.94758 -118.40011 120 ft 0 kts
2026-04-26 17:42 33.94767 -118.40010 122 ft 5 kts
2026-04-26 17:42 33.94807 -118.40011 122 ft 6 kts 350°
2026-04-26 17:42 33.94851 -118.40054 123 ft 13 kts 306°
2026-04-26 17:43 33.94920 -118.40042 123 ft 14 kts 79°
2026-04-26 17:43 33.94951 -118.39938 122 ft 13 kts 47°
2026-04-26 17:43 33.95032 -118.39934 123 ft 13 kts 311°
2026-04-26 17:43 33.95031 -118.40055 125 ft 29 kts 265°
2026-04-26 17:44 33.94963 -118.40717 123 ft 128 kts 263°
2026-04-26 17:44 33.94822 -118.42024 698 ft 170 kts 264°
2026-04-26 17:44 33.94670 -118.43528 1886 ft 178 kts 263°
2026-04-26 17:44 33.94492 -118.45035 2644 ft 189 kts 264°
2026-04-26 17:45 33.94342 -118.46649 2972 ft 204 kts 266°
2026-04-26 17:45 33.94276 -118.48404 3272 ft 219 kts 269°
2026-04-26 17:45 33.94229 -118.50279 3808 ft 225 kts 270°
2026-04-26 17:45 33.94153 -118.52163 4626 ft 225 kts 267°
2026-04-26 17:46 33.94004 -118.54065 5406 ft 228 kts 266°
2026-04-26 17:46 33.93849 -118.55947 6200 ft 230 kts 266°
2026-04-26 17:46 33.93695 -118.57889 6980 ft 232 kts 266°
2026-04-26 17:46 33.93541 -118.59828 7626 ft 234 kts 266°
2026-04-26 17:47 33.93482 -118.61791 7929 ft 235 kts 280°
2026-04-26 17:47 33.93844 -118.63013 7945 ft 235 kts 300°
2026-04-26 17:47 33.95381 -118.64901 7987 ft 246 kts 324°
2026-04-26 17:47 33.96848 -118.65981 7987 ft 246 kts 326°
2026-04-26 17:48 33.98312 -118.67047 7993 ft 244 kts 327°
2026-04-26 17:48 33.99917 -118.67667 7984 ft 251 kts 350°
2026-04-26 17:48 34.01684 -118.67662 7980 ft 254 kts 359°
2026-04-26 17:48 34.03446 -118.67516 7980 ft 253 kts 359°
2026-04-26 17:49 34.05203 -118.67382 7989 ft 253 kts 358°
2026-04-26 17:49 34.06968 -118.67250 7989 ft 252 kts 359°
2026-04-26 17:49 34.08716 -118.67049 8018 ft 260 kts
2026-04-26 17:49 34.10509 -118.66620 8640 ft 262 kts
2026-04-26 17:50 34.12297 -118.66160 9516 ft 265 kts
2026-04-26 17:50 34.14128 -118.65698 10318 ft 268 kts
2026-04-26 17:50 34.15933 -118.65256 11191 ft 267 kts
2026-04-26 17:50 34.17767 -118.64813 12066 ft 269 kts
2026-04-26 17:51 34.19608 -118.64376 12954 ft 270 kts
2026-04-26 17:51 34.21460 -118.63935 13863 ft 271 kts
2026-04-26 17:51 34.23325 -118.63489 14629 ft 275 kts
2026-04-26 17:51 34.24354 -118.63302 15009 ft 275 kts 357°
2026-04-26 17:52 34.24893 -118.63303 15194 ft 274 kts 350°
2026-04-26 17:52 34.26765 -118.63679 15953 ft 273 kts 344°
2026-04-26 17:52 34.28636 -118.64136 16708 ft 279 kts 344°
2026-04-26 17:52 34.30571 -118.64604 17454 ft 284 kts 344°
2026-04-26 17:53 34.32529 -118.65069 18250 ft 289 kts 345°
2026-04-26 17:53 34.34490 -118.65534 18902 ft 293 kts 344°
2026-04-26 17:53 34.36504 -118.66001 19623 ft 294 kts 344°
2026-04-26 17:54 34.40558 -118.66935 21084 ft 299 kts 345°
2026-04-26 17:54 34.42624 -118.67400 21708 ft 304 kts 345°
2026-04-26 17:54 34.44740 -118.67839 22346 ft 310 kts 346°
2026-04-26 17:54 34.46888 -118.68253 23019 ft 314 kts 346°
2026-04-26 17:55 34.49032 -118.68661 23649 ft 317 kts 346°
2026-04-26 17:55 34.51231 -118.69083 24206 ft 321 kts 346°
2026-04-26 17:55 34.53461 -118.69503 24777 ft 323 kts 346°
2026-04-26 17:55 34.55685 -118.69885 25307 ft 329 kts 348°
2026-04-26 17:56 34.56793 -118.70015 25536 ft 333 kts 350°
2026-04-26 17:56 34.59275 -118.70196 25987 ft 341 kts 352°
2026-04-26 17:57 34.60654 -118.70255 26272 ft 345 kts 352°
2026-04-26 17:57 34.63059 -118.70337 26868 ft 347 kts 354°
2026-04-26 17:57 34.65426 -118.70275 27492 ft 349 kts 358°
2026-04-26 17:57 34.67885 -118.70137 27555 ft 362 kts 352°
2026-04-26 17:58 34.74430 -118.73058 29507 ft 329 kts 309°
2026-04-26 17:59 34.77988 -118.76701 30424 ft 340 kts 319°
2026-04-26 17:59 34.79968 -118.78326 30817 ft 345 kts 321°
2026-04-26 17:59 34.81482 -118.79481 31108 ft 348 kts 322°
2026-04-26 18:00 34.82057 -118.79907 31219 ft 349 kts 322°
2026-04-26 18:00 34.84169 -118.81437 31624 ft 352 kts 323°
2026-04-26 18:00 34.86285 -118.82907 32006 ft 356 kts 324°
2026-04-26 18:00 34.88444 -118.84382 32394 ft 358 kts 324°
2026-04-26 18:01 34.90625 -118.85888 32787 ft 360 kts 324°
2026-04-26 18:01 34.92816 -118.87406 33146 ft 363 kts 323°
2026-04-26 18:01 34.95017 -118.88943 33513 ft 365 kts 323°
2026-04-26 18:01 34.97210 -118.90470 33854 ft 368 kts 323°
2026-04-26 18:02 34.99458 -118.92026 34000 ft 375 kts 324°
2026-04-26 18:02 35.00228 -118.92557 33995 ft 379 kts 324°
2026-04-26 18:02 35.04126 -118.95240 34009 ft 394 kts 325°
2026-04-26 18:02 35.06536 -118.96912 34020 ft 402 kts 324°
2026-04-26 18:03 35.11523 -119.00364 34014 ft 419 kts 325°
2026-04-26 18:03 35.16608 -119.03881 33996 ft 423 kts 325°
2026-04-26 18:04 35.21713 -119.07417 33999 ft 423 kts 326°